Location: Unspecified
(0.0000°N, 0.0000°E)
Time: 13:43:04
(UTC+02:00)

GPS 2-15 Rocket1 - Visible Passes

Search period start: 23 October 2014 00:00
Search period end: 01 November 2014 23:00
Orbit: 627 x 681 km, 19.8° (Epoch: 22 October)

Date Brightness Start Highest point End Pass type
(mag) Time Alt. Az. Time Alt. Az. Time Alt. Az.
24 Oct 5.6 21:04:33 10° S 21:05:40 11° SSE 21:06:48 10° SSE visible
25 Oct 5.3 21:30:29 10° SSW 21:33:21 17° SSE 21:33:21 17° SSE visible
26 Oct 5.6 19:14:53 10° S 19:16:37 12° SSE 19:18:20 10° SSE visible
26 Oct 5.4 20:57:13 10° SW 20:59:12 20° SSW 20:59:12 20° SSW visible
27 Oct 5.2 19:41:07 10° SSW 19:44:32 18° SSE 19:47:20 12° SE visible
27 Oct 6.0 21:24:18 10° SW 21:25:04 14° SW 21:25:04 14° SW visible
28 Oct 4.3 20:07:55 10° SW 20:12:18 30° SSE 20:13:13 28° SE visible
29 Oct 3.9 20:35:04 10° WSW 20:39:06 49° SSW 20:39:06 49° SSW visible
30 Oct 4.3 19:18:38 10° SW 19:23:08 34° SSE 19:27:16 12° E visible
30 Oct 5.0 21:02:34 10° WSW 21:05:00 29° WSW 21:05:00 29° WSW visible
31 Oct 5.3 05:49:38 10° NNW 05:52:28 16° NNE 05:55:17 10° NE visible
31 Oct 3.4 19:45:51 10° WSW 19:50:46 64° SSE 19:53:11 29° E visible
31 Oct 6.2 21:30:30 10° W 21:30:54 12° W 21:30:54 12° W visible
01 Nov 4.6 06:16:16 10° NW 06:20:14 27° NNE 06:24:10 10° ENE visible
01 Nov 3.3 20:13:25 10° WSW 20:18:21 67° NNW 20:19:05 58° NNE visible
